Tirstrup, Denmark

3:42 PM CEST on August 25, 2016 (GMT +0200)
Aarhus

Weather History for EKAH - December, 2013

Change the Weather History Date:

Tuesday, December 17, 2013

  Actual Average Record
Temperature  
Mean Temperature 36 °F -  
Max Temperature 41 °F 37 °F 51 °F (2015)
Min Temperature 32 °F 30 °F 14 °F (2010)
Degree Days  
Heating Degree Days 28    
Moisture  
Dew Point 37 °F    
Average Humidity 86    
Maximum Humidity 93    
Minimum Humidity 73    
Precipitation  
Precipitation 0.02 in - - ()
Sea Level Pressure  
Sea Level Pressure 30.14 in    
Wind  
Wind Speed 6 mph ()    
Max Wind Speed 12 mph    
Max Gust Speed 18 mph    
Visibility 6.9 miles    
Events Fog , Rain    
Averages and records for this station are not official NWS values.
T = Trace of Precipitation, MM = Missing Value Source: Averaged Metar Reports

Daily Weather History Graph

Daily Weather History Graph

Search for Another Location

Airport or City:

Trip Planner

Search our weather history database for the weather conditions in past years. The results will help you decide how hot, cold, wet, or windy it might be!

Date:

Astronomy

Dec. 17, 2013 Rise Set
Actual Time 8:46 AM CET 3:40 PM CET
Civil Twilight 7:58 AM CET 4:28 PM CET
Nautical Twilight 7:09 AM CET 5:18 PM CET
Astronomical Twilight 6:22 AM CET 6:04 PM CET
Moon 4:19 PM CET (12/17) 8:17 AM CET (12/17)
Length of Visible Light 8h 29m
Length of Day
6h 53m
Full, 100% of the Moon is Illuminated
Dec 17
Full
Dec 25
Last Quarter
Jan 1
New
Jan 8
First Quarter
Jan 16
Full

Hourly Weather History & Observations

Time (CET) Temp. Windchill Dew Point Humidity Pressure Visibility Wind Dir Wind Speed Gust Speed Precip Events Conditions
12:00 AM 47 °F - 42 °F 78% 30.04 in 14 mi WSW 6.9 mph - -  
12:20 AM 46.4 °F 42.4 °F 41.0 °F 81% 30.04 in 6.2 mi West 8.1 mph - N/A   Mostly Cloudy
12:50 AM 46.4 °F 43.5 °F 41.0 °F 81% 30.04 in 6.2 mi West 5.8 mph - N/A   Scattered Clouds
1:00 AM 46 °F - 40 °F 73% 30.04 in 13 mi West 6.9 mph - -  
1:20 AM 44.6 °F 41.4 °F 39.2 °F 81% 30.04 in 6.2 mi WSW 5.8 mph - N/A   Scattered Clouds
1:50 AM 44.6 °F 42.2 °F 41.0 °F 87% 30.04 in 6.2 mi WSW 4.6 mph - N/A   Mostly Cloudy
2:00 AM 45 °F - 41 °F 79% 30.05 in 11 mi WSW 5.8 mph - -  
2:20 AM 44.6 °F 42.2 °F 41.0 °F 87% 30.04 in 6.2 mi WSW 4.6 mph - N/A   Mostly Cloudy
2:50 AM 44.6 °F 42.2 °F 41.0 °F 87% 30.06 in 6.2 mi SW 4.6 mph - N/A   Overcast
3:00 AM 45 °F - 41 °F 79% 30.06 in 11 mi SW 3.5 mph - -  
3:20 AM 44.6 °F 42.2 °F 41.0 °F 87% 30.06 in 6.2 mi SW 4.6 mph - N/A   Overcast
3:50 AM 44.6 °F 43.1 °F 41.0 °F 87% 30.06 in 6.2 mi SSW 3.5 mph - N/A   Mostly Cloudy
4:00 AM 45 °F - 41 °F 79% 30.07 in 10 mi SSW 4.6 mph - -  
4:20 AM 44.6 °F 42.2 °F 41.0 °F 87% 30.06 in 6.2 mi SW 4.6 mph - N/A   Mostly Cloudy
4:50 AM 44.6 °F 42.2 °F 41.0 °F 87% 30.06 in 6.2 mi SSW 4.6 mph - N/A   Mostly Cloudy
5:00 AM 44 °F - 40 °F 82% 30.07 in 10 mi WSW 2.3 mph - -  
5:20 AM 44.6 °F 43.1 °F 41.0 °F 87% 30.06 in 6.2 mi SSW 3.5 mph - N/A   Mostly Cloudy
5:50 AM 44.6 °F 41.4 °F 39.2 °F 81% 30.06 in 6.2 mi SW 5.8 mph 18.4 mph N/A   Drizzle
6:00 AM 44 °F - 40 °F 79% 30.07 in 8 mi WSW 8.1 mph - - Rain Drizzle
6:20 AM 42.8 °F 36.6 °F 35.6 °F 76% 30.06 in 6.2 mi West 11.5 mph - N/A   Drizzle
6:50 AM 42.8 °F 38.0 °F 37.4 °F 81% 30.09 in 6.2 mi WSW 8.1 mph - N/A   Drizzle
7:00 AM 42 °F - 37 °F 76% 30.10 in 7 mi WSW 8.1 mph - - Rain Drizzle
7:20 AM 41.0 °F 35.2 °F 37.4 °F 87% 30.09 in 6.2 mi West 9.2 mph - N/A   Drizzle
7:50 AM 41.0 °F 36.4 °F 37.4 °F 87% 30.09 in 6.2 mi West 6.9 mph - N/A   Drizzle
8:00 AM 41 °F - 37 °F 80% 30.11 in 16 mi WSW 6.9 mph - - Rain Light Rain
8:20 AM 41.0 °F 36.4 °F 37.4 °F 87% 30.09 in 6.2 mi WSW 6.9 mph - N/A   Light Drizzle
8:50 AM 41.0 °F 35.8 °F 37.4 °F 87% 30.09 in 6.2 mi WSW 8.1 mph - N/A   Overcast
9:00 AM 40 °F - 37 °F 84% 30.12 in 31 mi WSW 8.1 mph - - Rain Drizzle
9:20 AM 41.0 °F 35.8 °F 37.4 °F 87% 30.12 in 6.2 mi WSW 8.1 mph - N/A Rain Light Rain Showers
9:50 AM 41.0 °F 36.4 °F 37.4 °F 87% 30.12 in 6.2 mi WSW 6.9 mph - N/A   Light Drizzle
10:00 AM 40 °F - 37 °F 85% 30.14 in 14 mi WSW 8.1 mph - - Rain Drizzle
10:20 AM 41.0 °F 35.8 °F 37.4 °F 87% 30.12 in 6.2 mi WSW 8.1 mph - N/A   Drizzle
10:50 AM 41.0 °F 35.8 °F 37.4 °F 87% 30.12 in 6.2 mi WSW 8.1 mph - N/A   Overcast
11:00 AM 41 °F - 37 °F 81% 30.14 in 22 mi WSW 6.9 mph - - Rain Light Rain Showers
11:20 AM 41.0 °F 37.1 °F 37.4 °F 87% 30.12 in 6.2 mi SW 5.8 mph - N/A   Overcast
11:50 AM 41.0 °F 38.0 °F 37.4 °F 87% 30.12 in 6.2 mi SW 4.6 mph - N/A   Mostly Cloudy
12:00 PM 41 °F - 37 °F 82% 30.14 in 28 mi SW 4.6 mph - - Rain Drizzle
12:20 PM 41.0 °F 36.4 °F 37.4 °F 87% 30.12 in 6.2 mi SW 6.9 mph - N/A   Mostly Cloudy
12:50 PM 42.8 °F 39.3 °F 37.4 °F 81% 30.12 in 6.2 mi WSW 5.8 mph - N/A   Partly Cloudy
1:00 PM 42 °F - 37 °F 75% 30.15 in 31 mi WSW 6.9 mph - -  
1:20 PM 41.0 °F 36.4 °F 37.4 °F 87% 30.15 in 6.2 mi WSW 6.9 mph - N/A   Unknown
1:50 PM 41.0 °F 35.8 °F 37.4 °F 87% 30.15 in 6.2 mi WSW 8.1 mph - N/A   Unknown
2:00 PM 41 °F - 37 °F 80% 30.16 in 19 mi WSW 8.1 mph - -  
2:20 PM 41.0 °F 34.7 °F 37.4 °F 87% 30.15 in 6.2 mi WSW 10.4 mph - N/A   Unknown
2:50 PM 41.0 °F 35.8 °F 37.4 °F 87% 30.15 in 6.2 mi WSW 8.1 mph - N/A   Unknown
3:00 PM 41 °F - 37 °F 80% 30.16 in 19 mi WSW 9.2 mph - -  
3:20 PM 41.0 °F 35.2 °F 37.4 °F 87% 30.15 in 6.2 mi WSW 9.2 mph - N/A   Unknown
3:50 PM 41.0 °F 35.8 °F 37.4 °F 87% 30.15 in 6.2 mi WSW 8.1 mph - N/A   Unknown
4:00 PM 40 °F - 37 °F 85% 30.18 in 18 mi SW 5.8 mph - -  
4:20 PM 41.0 °F 36.4 °F 37.4 °F 87% 30.18 in 6.2 mi SW 6.9 mph - N/A   Unknown
4:50 PM 39.2 °F 35.0 °F 35.6 °F 87% 30.18 in 6.2 mi SW 5.8 mph - N/A   Unknown
5:00 PM 39 °F - 37 °F 88% 30.21 in 11 mi SW 6.9 mph - -  
5:20 PM 39.2 °F 34.2 °F 37.4 °F 93% 30.21 in 6.2 mi SW 6.9 mph - N/A   Unknown
5:50 PM 39.2 °F 35.0 °F 35.6 °F 87% 30.21 in 6.2 mi SW 5.8 mph - N/A   Unknown
6:00 PM 38 °F - 36 °F 87% 30.22 in 9 mi SW 5.8 mph - -  
6:20 PM 39.2 °F 35.0 °F 35.6 °F 87% 30.21 in 6.2 mi SW 5.8 mph - N/A   Unknown
6:50 PM 39.2 °F 35.9 °F 35.6 °F 87% 30.21 in 6.2 mi SW 4.6 mph - N/A   Unknown
7:00 PM 38 °F - 36 °F 87% 30.24 in 7 mi SW 5.8 mph - -  
7:20 PM 37.4 °F 32.8 °F 35.6 °F 93% 30.21 in 6.2 mi SW 5.8 mph - N/A   Unknown
7:50 PM 37.4 °F 32.8 °F 35.6 °F 93% 30.24 in 5.0 mi SW 5.8 mph - N/A   Unknown
8:00 PM 38 °F - 36 °F 87% 30.25 in 4 mi SSW 5.8 mph - -   Mist
8:20 PM 37.4 °F 33.8 °F 35.6 °F 93% 30.24 in 3.7 mi SSW 4.6 mph - N/A   Unknown
8:50 PM 37.4 °F 32.8 °F 35.6 °F 93% 30.24 in - SW 5.8 mph - N/A   Mist
9:00 PM 37 °F - 35 °F 89% 30.25 in 3 mi SSW 5.8 mph - -   Mist
9:20 PM 35.6 °F 32.8 °F 33.8 °F 93% 30.24 in 1.1 mi SSW 3.5 mph - N/A   Mist
9:50 PM 35.6 °F - 33.8 °F 93% 30.24 in 0.6 mi ESE 1.2 mph - N/A   Mist
10:00 PM 35 °F - 33 °F 89% 30.25 in 0 mi SSW 2.3 mph - - Fog Fog
10:20 PM 35.6 °F - 33.8 °F 93% 30.24 in 1.5 mi SSE 1.2 mph - N/A   Partly Cloudy
10:50 PM 33.8 °F - 32.0 °F 93% 30.24 in 0.2 mi ESE 2.3 mph - N/A Fog Light Freezing Fog
11:00 PM 34 °F - 32 °F 89% 30.25 in 0 mi South 3.5 mph - - Fog Fog
11:20 PM 32.0 °F 28.7 °F 28.4 °F 87% 30.21 in 1.5 mi South 3.5 mph - N/A   Mist
11:50 PM 32.0 °F 28.7 °F 30.2 °F 93% 30.21 in 1.1 mi South 3.5 mph - N/A   Mostly Cloudy